TimeCST,TemperatureF,Dew PointF,Humidity,Sea Level PressureIn,VisibilityMPH,Wind Direction,Wind SpeedMPH,Gust SpeedMPH,PrecipitationIn,Events,Conditions,WindDirDegrees,DateUTC
12:15 AM,21.6,15.4,77,30.31,10.0,SW,10.4,-,N/A,,Clear,230,2013-01-06 06:15:00
12:35 AM,19.9,14.9,81,30.31,10.0,SW,11.5,-,N/A,,Clear,220,2013-01-06 06:35:00
12:55 AM,19.9,14.0,78,30.30,10.0,SW,10.4,-,N/A,,Clear,230,2013-01-06 06:55:00
1:15 AM,19.9,13.3,75,30.30,10.0,SW,11.5,-,N/A,,Clear,230,2013-01-06 07:15:00
1:35 AM,19.9,12.7,74,30.29,10.0,WSW,11.5,-,N/A,,Clear,240,2013-01-06 07:35:00
1:55 AM,20.1,12.2,71,30.29,10.0,SW,10.4,-,N/A,,Clear,230,2013-01-06 07:55:00
2:15 AM,20.1,11.8,70,30.29,10.0,SW,11.5,-,N/A,,Clear,230,2013-01-06 08:15:00
2:35 AM,19.4,11.5,71,30.29,10.0,WSW,10.4,-,N/A,,Clear,240,2013-01-06 08:35:00
2:55 AM,19.4,12.2,74,30.29,10.0,WSW,13.8,-,N/A,,Clear,240,2013-01-06 08:55:00
3:15 AM,18.5,11.8,75,30.30,10.0,WSW,10.4,-,N/A,,Clear,240,2013-01-06 09:15:00
3:35 AM,17.6,11.3,76,30.29,10.0,WSW,8.1,-,N/A,,Clear,240,2013-01-06 09:35:00
4:15 AM,17.6,11.5,77,30.28,10.0,SW,12.7,-,N/A,,Clear,230,2013-01-06 10:15:00
4:35 AM,17.2,11.1,77,30.28,10.0,WSW,11.5,-,N/A,,Clear,240,2013-01-06 10:35:00
4:55 AM,16.7,10.9,78,30.28,10.0,SW,11.5,-,N/A,,Clear,230,2013-01-06 10:55:00
5:15 AM,17.1,10.9,77,30.28,10.0,SW,12.7,-,N/A,,Clear,230,2013-01-06 11:15:00
5:55 AM,16.7,10.4,76,30.28,10.0,WSW,9.2,-,N/A,,Clear,240,2013-01-06 11:55:00
6:15 AM,15.8,10.0,78,30.28,10.0,WSW,10.4,-,N/A,,Clear,240,2013-01-06 12:15:00
6:35 AM,15.8,10.0,78,30.27,10.0,SW,12.7,-,N/A,,Clear,230,2013-01-06 12:35:00
6:55 AM,16.2,10.2,77,30.27,10.0,WSW,11.5,-,N/A,,Clear,240,2013-01-06 12:55:00
7:15 AM,14.7,9.3,79,30.27,10.0,WSW,4.6,-,N/A,,Clear,250,2013-01-06 13:15:00
7:35 AM,14.7,10.0,82,30.26,10.0,SW,4.6,-,N/A,,Clear,220,2013-01-06 13:35:00
8:15 AM,13.6,9.1,82,30.26,10.0,WSW,3.5,-,N/A,,Clear,250,2013-01-06 14:15:00
8:35 AM,12.2,8.2,84,30.26,10.0,SW,3.5,-,N/A,,Clear,230,2013-01-06 14:35:00
8:55 AM,12.2,8.4,85,30.26,10.0,SW,3.5,-,N/A,,Clear,230,2013-01-06 14:55:00
9:15 AM,13.3,8.6,82,30.26,10.0,SW,3.5,-,N/A,,Clear,230,2013-01-06 15:15:00
9:35 AM,15.1,9.5,79,30.26,10.0,SW,4.6,-,N/A,,Clear,230,2013-01-06 15:35:00
9:55 AM,16.7,10.4,76,30.26,10.0,SW,3.5,-,N/A,,Clear,230,2013-01-06 15:55:00
10:15 AM,18.5,11.1,73,30.26,10.0,SW,4.6,-,N/A,,Clear,230,2013-01-06 16:15:00
10:35 AM,21.2,13.1,71,30.26,10.0,SW,4.6,-,N/A,,Clear,230,2013-01-06 16:35:00
11:15 AM,25.2,15.8,68,30.24,10.0,WSW,4.6,-,N/A,,Clear,240,2013-01-06 17:15:00
11:35 AM,28.2,18.3,66,30.23,10.0,SSW,4.6,-,N/A,,Clear,210,2013-01-06 17:35:00
11:55 AM,32.5,21.0,63,30.21,10.0,WSW,3.5,-,N/A,,Clear,250,2013-01-06 17:55:00
12:15 PM,40.5,24.8,54,30.19,10.0,South,9.2,-,N/A,,Clear,190,2013-01-06 18:15:00
12:35 PM,41.0,25.5,54,30.18,10.0,South,11.5,-,N/A,,Clear,190,2013-01-06 18:35:00
12:55 PM,41.5,26.2,55,30.16,10.0,South,12.7,-,N/A,,Clear,190,2013-01-06 18:55:00
1:15 PM,42.4,26.6,54,30.14,10.0,South,11.5,-,N/A,,Clear,190,2013-01-06 19:15:00
1:35 PM,43.2,26.2,51,30.12,10.0,South,12.7,-,N/A,,Clear,190,2013-01-06 19:35:00
1:55 PM,43.3,26.1,51,30.10,10.0,South,13.8,-,N/A,,Clear,180,2013-01-06 19:55:00
2:15 PM,44.1,25.3,48,30.09,10.0,South,17.3,-,N/A,,Clear,180,2013-01-06 20:15:00
2:35 PM,44.8,25.0,46,30.07,10.0,South,16.1,20.7,N/A,,Clear,170,2013-01-06 20:35:00
2:55 PM,45.1,25.2,46,30.06,10.0,South,15.0,-,N/A,,Clear,170,2013-01-06 20:55:00
3:15 PM,45.5,25.9,46,30.05,10.0,South,11.5,-,N/A,,Clear,170,2013-01-06 21:15:00
3:35 PM,45.7,25.7,46,30.04,10.0,South,9.2,-,N/A,,Clear,170,2013-01-06 21:35:00
3:55 PM,45.5,26.1,47,30.04,10.0,South,9.2,-,N/A,,Clear,170,2013-01-06 21:55:00
4:15 PM,44.6,26.1,48,30.03,10.0,SSE,12.7,-,N/A,,Clear,160,2013-01-06 22:15:00
4:55 PM,42.1,27.1,55,30.01,10.0,SSE,12.7,-,N/A,,Clear,160,2013-01-06 22:55:00
5:15 PM,41.2,26.6,56,30.00,10.0,SSE,15.0,-,N/A,,Clear,160,2013-01-06 23:15:00
5:35 PM,40.3,26.4,58,29.99,10.0,South,18.4,-,N/A,,Clear,170,2013-01-06 23:35:00
5:55 PM,39.2,26.4,60,29.98,10.0,South,18.4,-,N/A,,Clear,170,2013-01-06 23:55:00
6:15 PM,38.3,26.4,62,29.98,10.0,South,19.6,-,N/A,,Clear,170,2013-01-07 00:15:00
6:55 PM,36.3,26.4,67,29.98,10.0,SSW,9.2,-,N/A,,Clear,200,2013-01-07 00:55:00
7:15 PM,34.0,25.9,72,29.98,10.0,SSW,10.4,-,N/A,,Clear,210,2013-01-07 01:15:00
7:35 PM,34.0,25.7,72,29.98,10.0,SSW,11.5,-,N/A,,Clear,200,2013-01-07 01:35:00
7:55 PM,32.7,25.3,74,29.98,10.0,SSW,11.5,-,N/A,,Clear,200,2013-01-07 01:55:00
8:15 PM,32.9,25.3,74,29.97,10.0,SSW,9.2,-,N/A,,Clear,210,2013-01-07 02:15:00
8:35 PM,32.9,25.3,74,29.96,10.0,South,12.7,-,N/A,,Clear,190,2013-01-07 02:35:00
8:55 PM,32.4,25.2,75,29.96,10.0,SW,12.7,19.6,N/A,,Clear,220,2013-01-07 02:55:00
9:15 PM,32.0,24.8,75,29.96,10.0,SW,11.5,-,N/A,,Clear,220,2013-01-07 03:15:00
9:35 PM,31.1,24.6,77,29.96,10.0,SW,9.2,-,N/A,,Clear,220,2013-01-07 03:35:00
9:55 PM,30.2,24.3,79,29.95,10.0,SSW,10.4,-,N/A,,Clear,200,2013-01-07 03:55:00
10:15 PM,28.8,23.4,80,29.94,10.0,SSW,8.1,-,N/A,,Clear,200,2013-01-07 04:15:00
10:35 PM,28.0,23.0,81,29.95,10.0,SSW,5.8,-,N/A,,Clear,210,2013-01-07 04:35:00
10:55 PM,26.1,21.9,84,29.94,10.0,SW,6.9,-,N/A,,Clear,220,2013-01-07 04:55:00
11:15 PM,27.3,22.3,81,29.94,10.0,SSW,5.8,-,N/A,,Clear,210,2013-01-07 05:15:00
11:35 PM,26.2,21.9,84,29.94,10.0,SW,5.8,-,N/A,,Clear,220,2013-01-07 05:35:00